NWK2909 YFDF-YPPH

Flight info

Callsign NWK2909
Flight time 1h 29m
Altitude 38000
Route ISLIP Q181 AVPAL Q38 JULIM
Aircraft A319/M-SDFGHIRWXYZ/LB1

Departure

Time 2026-04-27 05:24
Airport Fortescue - Dave Forrest Aerodrome (YFDF)

Arrival

Time 2026-04-27 06:53
Airport Perth International Airport (YPPH)
Time Latitude Longitude Altitude Speed Heading
2026-04-27 05:07 -22.28992 119.43291 1565 ft 0 kts 172°
2026-04-27 05:20 -22.28995 119.43292 1573 ft 1 kts 166°
2026-04-27 05:20 -22.28998 119.43306 1576 ft 2 kts 90°
2026-04-27 05:20 -22.28981 119.43324 1567 ft 5 kts 40°
2026-04-27 05:20 -22.28947 119.43350 1567 ft 7 kts 33°
2026-04-27 05:21 -22.28897 119.43385 1566 ft 10 kts 33°
2026-04-27 05:21 -22.28835 119.43381 1568 ft 10 kts 313°
2026-04-27 05:21 -22.28794 119.43312 1569 ft 11 kts 302°
2026-04-27 05:21 -22.28750 119.43239 1569 ft 12 kts 304°
2026-04-27 05:22 -22.28698 119.43156 1569 ft 14 kts 304°
2026-04-27 05:22 -22.28638 119.43061 1568 ft 16 kts 304°
2026-04-27 05:22 -22.28576 119.42960 1569 ft 16 kts 301°
2026-04-27 05:22 -22.28567 119.42931 1568 ft 3 kts 44°
2026-04-27 05:23 -22.28572 119.42952 1569 ft 6 kts 119°
2026-04-27 05:23 -22.28686 119.43138 1569 ft 60 kts 124°
2026-04-27 05:23 -22.29038 119.43696 1566 ft 119 kts 124°
2026-04-27 05:23 -22.29593 119.44591 1709 ft 156 kts 120°
2026-04-27 05:24 -22.30198 119.45527 2325 ft 150 kts 120°
2026-04-27 05:24 -22.30771 119.46429 3006 ft 144 kts 122°
2026-04-27 05:24 -22.31366 119.47308 3514 ft 153 kts 130°
2026-04-27 05:24 -22.32441 119.47788 3732 ft 189 kts 173°
2026-04-27 05:25 -22.33798 119.47354 3967 ft 223 kts 211°
2026-04-27 05:25 -22.34854 119.46005 4272 ft 250 kts 242°
2026-04-27 05:25 -22.35702 119.44250 4613 ft 276 kts 241°
2026-04-27 05:25 -22.36852 119.42518 5249 ft 290 kts 220°
2026-04-27 05:26 -22.38589 119.41431 6154 ft 290 kts 194°
2026-04-27 05:26 -22.40551 119.40898 7114 ft 293 kts 189°
2026-04-27 05:26 -22.42614 119.40381 7573 ft 317 kts 189°
2026-04-27 05:26 -22.44837 119.39837 8006 ft 337 kts 189°
2026-04-27 05:27 -22.47148 119.39265 8752 ft 344 kts 190°
2026-04-27 05:27 -22.49495 119.38675 9587 ft 348 kts 190°
2026-04-27 05:27 -22.51873 119.38069 10357 ft 353 kts 191°
2026-04-27 05:27 -22.54271 119.37454 11073 ft 357 kts 191°
2026-04-27 05:28 -22.56676 119.36837 11784 ft 362 kts 191°
2026-04-27 05:28 -22.59139 119.36204 12483 ft 365 kts 192°
2026-04-27 05:28 -22.61653 119.35561 13217 ft 368 kts 192°
2026-04-27 05:28 -22.64124 119.34930 13897 ft 371 kts 193°
2026-04-27 05:29 -22.66644 119.34290 14504 ft 374 kts 193°
2026-04-27 05:29 -22.69188 119.33643 15109 ft 377 kts 193°
2026-04-27 05:29 -22.71754 119.32991 15699 ft 380 kts 194°
2026-04-27 05:29 -22.74341 119.32333 16281 ft 384 kts 194°
2026-04-27 05:30 -22.76955 119.31671 16866 ft 387 kts 194°
2026-04-27 05:30 -22.79589 119.31007 17444 ft 391 kts 195°
2026-04-27 05:30 -22.82246 119.30337 18029 ft 394 kts 195°
2026-04-27 05:30 -22.84933 119.29656 18560 ft 397 kts 195°
2026-04-27 05:31 -22.87636 119.28971 19074 ft 401 kts 195°
2026-04-27 05:31 -22.90357 119.28280 19594 ft 404 kts 195°
2026-04-27 05:31 -22.93102 119.27584 20118 ft 407 kts 195°
2026-04-27 05:31 -22.95868 119.26883 20622 ft 410 kts 195°
2026-04-27 05:32 -22.98659 119.26174 21138 ft 413 kts 195°
2026-04-27 05:32 -23.01433 119.25471 21643 ft 416 kts 195°
2026-04-27 05:32 -23.04294 119.24746 22141 ft 419 kts 195°
2026-04-27 05:32 -23.07107 119.24032 22601 ft 422 kts 195°
2026-04-27 05:33 -23.10009 119.23292 23062 ft 425 kts 195°
2026-04-27 05:33 -23.12857 119.22566 23506 ft 428 kts 195°
2026-04-27 05:33 -23.15767 119.21828 23900 ft 430 kts 196°
2026-04-27 05:33 -23.18687 119.21086 24275 ft 432 kts 196°
2026-04-27 05:34 -23.21628 119.20336 24657 ft 434 kts 196°
2026-04-27 05:34 -23.24576 119.19584 25042 ft 437 kts 196°
2026-04-27 05:34 -23.27542 119.18827 25423 ft 439 kts 197°
2026-04-27 05:34 -23.30529 119.18065 25797 ft 441 kts 197°
2026-04-27 05:35 -23.33526 119.17303 26166 ft 443 kts 197°
2026-04-27 05:35 -23.36532 119.16538 26537 ft 445 kts 197°
2026-04-27 05:35 -23.39559 119.15764 26896 ft 448 kts 197°
2026-04-27 05:35 -23.42595 119.14986 27252 ft 450 kts 197°
2026-04-27 05:36 -23.45654 119.14200 27611 ft 452 kts 197°
2026-04-27 05:36 -23.48720 119.13400 27973 ft 454 kts 198°
2026-04-27 05:36 -23.51763 119.12597 28323 ft 457 kts 198°
2026-04-27 05:36 -23.54852 119.11780 28673 ft 459 kts 198°
2026-04-27 05:37 -23.57962 119.10959 29014 ft 461 kts 198°
2026-04-27 05:37 -23.61091 119.10132 29352 ft 463 kts 198°
2026-04-27 05:37 -23.64231 119.09300 29678 ft 466 kts 198°
2026-04-27 05:37 -23.67394 119.08465 29990 ft 468 kts 198°
2026-04-27 05:38 -23.70559 119.07625 30258 ft 470 kts 198°
2026-04-27 05:38 -23.73748 119.06779 30530 ft 472 kts 199°
2026-04-27 05:38 -23.76947 119.05934 30801 ft 474 kts 199°
2026-04-27 05:38 -23.80157 119.05091 31092 ft 475 kts 199°
2026-04-27 05:39 -23.83366 119.04248 31486 ft 473 kts 199°
2026-04-27 05:39 -23.86557 119.03406 31882 ft 472 kts 199°
2026-04-27 05:39 -23.89748 119.02565 32281 ft 471 kts 199°
2026-04-27 05:39 -23.92925 119.01724 32685 ft 470 kts 200°
2026-04-27 05:40 -23.96100 119.00880 33095 ft 468 kts 200°
2026-04-27 05:40 -23.99223 119.00052 33515 ft 467 kts 200°
2026-04-27 05:40 -24.02378 118.99218 33944 ft 466 kts 200°
2026-04-27 05:40 -24.05529 118.98386 34325 ft 465 kts 200°
2026-04-27 05:41 -24.08672 118.97552 34721 ft 464 kts 201°
2026-04-27 05:41 -24.11808 118.96718 35123 ft 462 kts 201°
2026-04-27 05:41 -24.14923 118.95887 35511 ft 461 kts 201°
2026-04-27 05:41 -24.18044 118.95056 35895 ft 460 kts 201°
2026-04-27 05:42 -24.21114 118.94241 36278 ft 458 kts 201°
2026-04-27 05:42 -24.24251 118.93405 36649 ft 457 kts 201°
2026-04-27 05:42 -24.27325 118.92585 37015 ft 456 kts 202°
2026-04-27 05:42 -24.30409 118.91764 37365 ft 455 kts 202°
2026-04-27 05:43 -24.33481 118.90945 37718 ft 454 kts 202°
2026-04-27 05:43 -24.36515 118.90140 37933 ft 454 kts 202°
2026-04-27 05:43 -24.39576 118.89327 37966 ft 451 kts 202°
2026-04-27 05:44 -24.45671 118.87704 37969 ft 450 kts 202°
2026-04-27 05:44 -24.51757 118.86069 37967 ft 450 kts 202°
2026-04-27 05:45 -24.57812 118.84447 37968 ft 450 kts 202°
2026-04-27 05:45 -24.63907 118.82820 37966 ft 450 kts 202°
2026-04-27 05:46 -24.69996 118.81191 37970 ft 450 kts 203°
2026-04-27 05:46 -24.76031 118.79573 37975 ft 450 kts 203°
2026-04-27 05:47 -24.82122 118.77939 37975 ft 450 kts 203°
2026-04-27 05:47 -24.88196 118.76301 37980 ft 449 kts 203°
2026-04-27 05:48 -24.94277 118.74668 37978 ft 449 kts 203°
2026-04-27 05:48 -25.00349 118.73037 37977 ft 449 kts 203°
2026-04-27 05:49 -25.06412 118.71404 37977 ft 448 kts 204°
2026-04-27 05:49 -25.12433 118.69770 37978 ft 448 kts 204°
2026-04-27 05:50 -25.18492 118.68131 37980 ft 448 kts 204°
2026-04-27 05:50 -25.24546 118.66496 37982 ft 448 kts 204°
2026-04-27 05:51 -25.30582 118.64867 37982 ft 448 kts 204°
2026-04-27 05:51 -25.36651 118.63221 37987 ft 448 kts 204°
2026-04-27 05:52 -25.42670 118.61579 37994 ft 448 kts 204°
2026-04-27 05:52 -25.48726 118.59939 37984 ft 448 kts 204°
2026-04-27 05:53 -25.54791 118.58299 37984 ft 448 kts 204°
2026-04-27 05:53 -25.60797 118.56544 37983 ft 443 kts 207°
2026-04-27 05:54 -25.66616 118.54378 37979 ft 439 kts 210°
2026-04-27 05:54 -25.72346 118.52094 37984 ft 440 kts 210°
2026-04-27 05:55 -25.78151 118.49873 37981 ft 441 kts 209°
2026-04-27 05:55 -25.83979 118.47707 37983 ft 442 kts 209°
2026-04-27 05:56 -25.89812 118.45545 37982 ft 442 kts 209°
2026-04-27 05:56 -25.95614 118.43380 37978 ft 442 kts 209°
2026-04-27 05:57 -26.01458 118.41184 37977 ft 443 kts 210°
2026-04-27 05:57 -26.07292 118.38989 37982 ft 443 kts 210°
2026-04-27 05:58 -26.13103 118.36808 37982 ft 443 kts 210°
2026-04-27 05:58 -26.18951 118.34606 37988 ft 443 kts 210°
2026-04-27 05:59 -26.24802 118.32399 37985 ft 444 kts 210°
2026-04-27 05:59 -26.30654 118.30191 37984 ft 444 kts 210°
2026-04-27 06:00 -26.39402 118.26894 37979 ft 444 kts 210°
2026-04-27 06:00 -26.45254 118.24680 37983 ft 444 kts 210°
2026-04-27 06:01 -26.51123 118.22458 37992 ft 444 kts 210°
2026-04-27 06:01 -26.56987 118.20242 37988 ft 444 kts 210°
2026-04-27 06:02 -26.62812 118.18032 37995 ft 444 kts 210°
2026-04-27 06:02 -26.68672 118.15808 37989 ft 445 kts 210°
2026-04-27 06:03 -26.74503 118.13587 37980 ft 445 kts 210°
2026-04-27 06:03 -26.79414 118.11717 37977 ft 445 kts 210°
2026-04-27 06:04 -26.86239 118.09119 37984 ft 445 kts 210°
2026-04-27 06:04 -26.91123 118.07258 37979 ft 445 kts 210°
2026-04-27 06:05 -26.97961 118.04654 37985 ft 446 kts 210°
2026-04-27 06:05 -27.02881 118.02778 37987 ft 446 kts 210°
2026-04-27 06:06 -27.08723 118.00539 37985 ft 446 kts 210°
2026-04-27 06:06 -27.14608 117.98279 37986 ft 446 kts 210°
2026-04-27 06:07 -27.20496 117.96017 37987 ft 447 kts 210°
2026-04-27 06:07 -27.26379 117.93766 37986 ft 447 kts 210°
2026-04-27 06:08 -27.32272 117.91507 37985 ft 447 kts 210°
2026-04-27 06:08 -27.38121 117.89255 37984 ft 447 kts 209°
2026-04-27 06:09 -27.44017 117.86981 37983 ft 447 kts 209°
2026-04-27 06:09 -27.49880 117.84722 37984 ft 447 kts 209°
2026-04-27 06:10 -27.55779 117.82443 37981 ft 447 kts 209°
2026-04-27 06:10 -27.61667 117.80166 37976 ft 448 kts 209°
2026-04-27 06:11 -27.67568 117.77883 37976 ft 448 kts 209°
2026-04-27 06:11 -27.73430 117.75618 37973 ft 448 kts 209°
2026-04-27 06:12 -27.79330 117.73338 37970 ft 448 kts 209°
2026-04-27 06:12 -27.85227 117.71041 37971 ft 448 kts 209°
2026-04-27 06:13 -27.91128 117.68736 37971 ft 448 kts 209°
2026-04-27 06:13 -27.96988 117.66451 37966 ft 448 kts 209°
2026-04-27 06:14 -28.02896 117.64150 37965 ft 448 kts 209°
2026-04-27 06:14 -28.08804 117.61843 37961 ft 449 kts 209°
2026-04-27 06:15 -28.14672 117.59550 37953 ft 449 kts 209°
2026-04-27 06:15 -28.20589 117.57238 37952 ft 449 kts 208°
2026-04-27 06:16 -28.26512 117.54920 37951 ft 450 kts 208°
2026-04-27 06:16 -28.32396 117.52607 37950 ft 450 kts 208°
2026-04-27 06:17 -28.38314 117.50283 37946 ft 450 kts 208°
2026-04-27 06:17 -28.44232 117.47956 37947 ft 450 kts 208°
2026-04-27 06:18 -28.50124 117.45633 37948 ft 450 kts 208°
2026-04-27 06:18 -28.56069 117.43285 37953 ft 451 kts 208°
2026-04-27 06:19 -28.61998 117.40950 37951 ft 451 kts 208°
2026-04-27 06:19 -28.67899 117.38622 37947 ft 451 kts 208°
2026-04-27 06:20 -28.73843 117.36277 37947 ft 451 kts 208°
2026-04-27 06:20 -28.79780 117.33927 37947 ft 451 kts 208°
2026-04-27 06:21 -28.85713 117.31575 37948 ft 452 kts 208°
2026-04-27 06:21 -28.91615 117.29237 37948 ft 452 kts 208°
2026-04-27 06:22 -28.97558 117.26881 37957 ft 452 kts 208°
2026-04-27 06:22 -29.03501 117.24523 37956 ft 452 kts 208°
2026-04-27 06:23 -29.09456 117.22160 37950 ft 452 kts 208°
2026-04-27 06:23 -29.15363 117.19802 37960 ft 452 kts 207°
2026-04-27 06:24 -29.21306 117.17429 37941 ft 452 kts 207°
2026-04-27 06:24 -29.27254 117.15053 37950 ft 453 kts 207°
2026-04-27 06:25 -29.33201 117.12676 37954 ft 453 kts 207°
2026-04-27 06:25 -29.39156 117.10287 37952 ft 453 kts 207°
2026-04-27 06:26 -29.45104 117.07899 37960 ft 453 kts 207°
2026-04-27 06:26 -29.51054 117.05513 37965 ft 453 kts 207°
2026-04-27 06:27 -29.57007 117.03120 37964 ft 453 kts 207°
2026-04-27 06:27 -29.62968 117.00732 37970 ft 454 kts 207°
2026-04-27 06:28 -29.68887 116.98353 37972 ft 454 kts 207°
2026-04-27 06:28 -29.74848 116.95952 37978 ft 454 kts 207°
2026-04-27 06:29 -29.80807 116.93540 37982 ft 454 kts 207°
2026-04-27 06:29 -29.86774 116.91116 37984 ft 454 kts 207°
2026-04-27 06:30 -29.92743 116.88706 37994 ft 454 kts 207°
2026-04-27 06:30 -29.98713 116.86299 37994 ft 455 kts 207°
2026-04-27 06:31 -30.04689 116.83877 38003 ft 455 kts 207°
2026-04-27 06:31 -30.10651 116.81445 38000 ft 455 kts 207°
2026-04-27 06:32 -30.16586 116.79028 38002 ft 455 kts 207°
2026-04-27 06:32 -30.22556 116.76595 38002 ft 456 kts 207°
2026-04-27 06:33 -30.28546 116.74153 38011 ft 456 kts 207°
2026-04-27 06:33 -30.34518 116.71708 38007 ft 456 kts 207°
2026-04-27 06:34 -30.40519 116.69253 38003 ft 457 kts 207°
2026-04-27 06:34 -30.46521 116.66800 38001 ft 459 kts 207°
2026-04-27 06:35 -30.52546 116.64329 37111 ft 460 kts 206°
2026-04-27 06:35 -30.55593 116.63071 35853 ft 471 kts 205°
2026-04-27 06:35 -30.58714 116.61802 34769 ft 478 kts 204°
2026-04-27 06:36 -30.61883 116.60554 33592 ft 482 kts 203°
2026-04-27 06:36 -30.65067 116.59331 32227 ft 486 kts 203°
2026-04-27 06:36 -30.68307 116.58101 30750 ft 489 kts 202°
2026-04-27 06:36 -30.71554 116.56868 29213 ft 491 kts 203°
2026-04-27 06:37 -30.74773 116.55637 27815 ft 486 kts 203°
2026-04-27 06:37 -30.77932 116.54421 26600 ft 480 kts 203°
2026-04-27 06:37 -30.81076 116.53202 25429 ft 472 kts 203°
2026-04-27 06:37 -30.84173 116.51996 24332 ft 466 kts 203°
2026-04-27 06:38 -30.87246 116.50792 23633 ft 463 kts 204°
2026-04-27 06:38 -30.90283 116.49601 22811 ft 458 kts 204°
2026-04-27 06:38 -30.93280 116.48426 22129 ft 450 kts 204°
2026-04-27 06:38 -30.96225 116.47272 21470 ft 445 kts 204°
2026-04-27 06:39 -30.99146 116.46127 20836 ft 440 kts 204°
2026-04-27 06:39 -31.02034 116.44997 19976 ft 438 kts 204°
2026-04-27 06:39 -31.04909 116.43867 19355 ft 432 kts 204°
2026-04-27 06:39 -31.07728 116.42763 18612 ft 424 kts 204°
2026-04-27 06:40 -31.10505 116.41675 17782 ft 418 kts 204°
2026-04-27 06:40 -31.13226 116.40611 17163 ft 405 kts 204°
2026-04-27 06:40 -31.15856 116.39582 16563 ft 393 kts 204°
2026-04-27 06:40 -31.18384 116.38592 15968 ft 384 kts 204°
2026-04-27 06:41 -31.20898 116.37599 15365 ft 379 kts 204°
2026-04-27 06:41 -31.23385 116.36612 14771 ft 376 kts 204°
2026-04-27 06:41 -31.25848 116.35635 14178 ft 373 kts 204°
2026-04-27 06:41 -31.28294 116.34666 13556 ft 370 kts 204°
2026-04-27 06:42 -31.30723 116.33706 12933 ft 366 kts 204°
2026-04-27 06:42 -31.33116 116.32758 12343 ft 362 kts 205°
2026-04-27 06:42 -31.35493 116.31819 11750 ft 358 kts 205°
2026-04-27 06:42 -31.37842 116.30893 11168 ft 355 kts 205°
2026-04-27 06:43 -31.40178 116.29974 10614 ft 352 kts 205°
2026-04-27 06:43 -31.42380 116.28931 10465 ft 329 kts 215°
2026-04-27 06:43 -31.44340 116.27683 10351 ft 315 kts 216°
2026-04-27 06:43 -31.46233 116.26480 10210 ft 303 kts 216°
2026-04-27 06:44 -31.48061 116.25317 9936 ft 297 kts 217°
2026-04-27 06:44 -31.49855 116.24171 9812 ft 294 kts 217°
2026-04-27 06:44 -31.51652 116.23019 9533 ft 295 kts 217°
2026-04-27 06:44 -31.53457 116.21858 9120 ft 294 kts 216°
2026-04-27 06:45 -31.55238 116.20717 8733 ft 289 kts 216°
2026-04-27 06:45 -31.56998 116.19591 8111 ft 287 kts 216°
2026-04-27 06:45 -31.58744 116.18473 7533 ft 284 kts 216°
2026-04-27 06:45 -31.60462 116.17371 7065 ft 276 kts 216°
2026-04-27 06:46 -31.62098 116.16330 6866 ft 261 kts 216°
2026-04-27 06:46 -31.63668 116.15325 6603 ft 253 kts 216°
2026-04-27 06:46 -31.65216 116.14325 6487 ft 252 kts 216°
2026-04-27 06:46 -31.66730 116.13350 6335 ft 245 kts 216°
2026-04-27 06:47 -31.68218 116.12390 6019 ft 244 kts 216°
2026-04-27 06:47 -31.69712 116.11424 5753 ft 245 kts 216°
2026-04-27 06:47 -31.71203 116.10463 5482 ft 244 kts 214°
2026-04-27 06:47 -31.72690 116.09507 5190 ft 243 kts 214°
2026-04-27 06:48 -31.74119 116.08587 4779 ft 242 kts 214°
2026-04-27 06:48 -31.75489 116.07435 4257 ft 236 kts 230°
2026-04-27 06:48 -31.76517 116.05958 3773 ft 232 kts 236°
2026-04-27 06:48 -31.77480 116.04474 3190 ft 223 kts 237°
2026-04-27 06:49 -31.78385 116.03085 2912 ft 205 kts 237°
2026-04-27 06:49 -31.79211 116.01818 2834 ft 186 kts 238°
2026-04-27 06:49 -31.80111 116.00761 2600 ft 184 kts 218°
2026-04-27 06:49 -31.81278 116.00212 2383 ft 178 kts 197°
2026-04-27 06:50 -31.82418 115.99885 2165 ft 160 kts 197°
2026-04-27 06:50 -31.83444 115.99587 1968 ft 145 kts 198°
2026-04-27 06:50 -31.84383 115.99315 1779 ft 134 kts 197°
2026-04-27 06:50 -31.85259 115.99059 1599 ft 127 kts 196°
2026-04-27 06:51 -31.86111 115.98811 1424 ft 125 kts 196°
2026-04-27 06:51 -31.86950 115.98567 1265 ft 123 kts 194°
2026-04-27 06:51 -31.87774 115.98327 1102 ft 121 kts 194°
2026-04-27 06:51 -31.88575 115.98094 943 ft 119 kts 193°
2026-04-27 06:52 -31.89382 115.97859 777 ft 118 kts 192°
2026-04-27 06:52 -31.90172 115.97629 636 ft 118 kts 193°
2026-04-27 06:52 -31.90974 115.97396 478 ft 118 kts 191°
2026-04-27 06:52 -31.91766 115.97165 318 ft 116 kts 192°
2026-04-27 06:53 -31.92551 115.96937 178 ft 116 kts 192°
2026-04-27 06:53 -31.93319 115.96712 69 ft 104 kts 192°
2026-04-27 06:53 -31.93900 115.96542 68 ft 62 kts 193°
2026-04-27 06:53 -31.94211 115.96453 67 ft 42 kts 193°
2026-04-27 06:54 -31.94406 115.96374 63 ft 24 kts 231°
2026-04-27 06:54 -31.94404 115.96200 64 ft 17 kts 303°
2026-04-27 06:54 -31.94299 115.96189 66 ft 16 kts 18°
2026-04-27 06:54 -31.94194 115.96221 63 ft 16 kts 13°
2026-04-27 06:55 -31.94091 115.96251 68 ft 15 kts 13°
2026-04-27 06:55 -31.93991 115.96251 64 ft 14 kts 343°
2026-04-27 06:55 -31.93899 115.96225 66 ft 13 kts 348°
2026-04-27 06:55 -31.93807 115.96202 65 ft 14 kts 347°
2026-04-27 06:56 -31.93717 115.96179 64 ft 13 kts 351°
2026-04-27 06:56 -31.93626 115.96185 65 ft 13 kts 15°
2026-04-27 06:56 -31.93545 115.96211 65 ft 12 kts 16°
2026-04-27 06:56 -31.93473 115.96257 65 ft 12 kts 33°
2026-04-27 06:57 -31.93401 115.96299 68 ft 11 kts 19°
2026-04-27 06:57 -31.93327 115.96320 66 ft 11 kts
2026-04-27 06:57 -31.93255 115.96332 66 ft 10 kts 360°
2026-04-27 06:57 -31.93217 115.96280 68 ft 8 kts 295°
2026-04-27 06:58 -31.93187 115.96226 66 ft 8 kts 311°
2026-04-27 06:58 -31.93140 115.96126 68 ft 7 kts 295°
2026-04-27 06:58 -31.93125 115.96096 65 ft 7 kts 303°
2026-04-27 06:59 -31.93051 115.96014 61 ft 11 kts 353°
2026-04-27 06:59 -31.93031 115.96059 68 ft 6 kts 75°
2026-04-27 06:59 -31.93017 115.96087 67 ft 6 kts 39°
2026-04-27 06:59 -31.92974 115.96086 67 ft 4 kts 298°
2026-04-27 07:00 -31.92969 115.96064 66 ft 5 kts 284°
2026-04-27 07:00 -31.92963 115.96036 61 ft 0 kts 284°